Starlink 30242

operational
NORAD ID: 57739 Int'l Des: 2023-131 Owner: SPXS Country: US Constellation: starlink
LEOCIRCULAR

关于 Starlink 30242

正在加载描述...

实时位置

正在加载3D地球...

即将过境

高度历史

Altitude vs Time

uPlot chart will show altitude changes over time

两行轨道根数

1 57739U 23131H 25351.08398907 .00001124 00000-0 98264-4 0 9992
2 57739 43.0004 235.2852 0001152 277.0292 83.0419 15.02537488127793
Epoch: Dec 17, 2025 • Age: 28 hours

当前状态

高度 571.7 km
速度 7.58 km/s
星下点 -43.16°S, 43.54°W
发射日期 Sep 1, 2023
运行时间 2.2 years
类型 internet

技术详情

分类 Payload
质量 730.00 kg
干质量 700.00 kg
总质量 730.00 kg
长度 0.30 m
直径 4.10 m
跨度 29.00 m
形状 Box + pan
制造商 SPXS
平台类型 Starlink V2M
阶段状态 In Orbit
所有者/国家 SPXS/US

大型星座

Loading constellations...